Tracking 22100 objects as of 20-Jan-2021
HD Live streaming from Space Station
objects crossing your sky now

AMC-8 (GE-8)

Track AMC-8 (GE-8) now!
AMC-8 (GE-8) is classified as:


NORAD ID: 26639
Int'l Code: 2000-081B
Perigee: 35,781.9 km
Apogee: 35,805.9 km
Inclination: 1.2 °
Period: 1,436.1 minutes
Semi major axis: 42164 km
RCS: 25.1189 m2 (large)
Launch date: December 20, 2000
Source: SOCIETE EUROPEENNE DES SATELLITES (SES)
Launch site: FRENCH GUIANA (FRGUI)

Cable television and radio programming; 24 C-band; CONUS, Alaska, Hawaii, Caribbean
aabbcc
Your satellite tracking list
Your tracking list is empty




NASA's NSSDC Master Catalog

Two Line Element Set (TLE):
1 26639U 00081B   21019.52001473  .00000092  00000-0  00000-0 0  9991
2 26639   1.1787  93.8697 0002844 210.9168 226.5291  1.00271376 73531
Source of the keplerian elements: AFSPC